Wind_Speed
7 3 5 3 5 4 4 1 11 13 15 34 30 21 17 12 5 9 25 19 17 15 16 15 13 13 12 13 13 13 12 11 12 13 13 13 14 14 15 15 14 13 12 10 8 7 6 6 6
3 2 6 1 4 2 4 10 11 13 27 34 32 30 24 19 28 31 24 17 15 15 16 15 13 13 13 13 12 12 11 11 12 13 13 13 14 14 15 16 16 15 14 14 12 10 9 8 9
3 5 2 5 3 3 3 14 12 19 26 22 14 21 10 18 15 20 22 15 14 17 16 15 14 13 13 12 11 11 11 11 11 12 12 13 13 15 15 15 14 14 13 11 11 10 11 11 11
3 2 5 2 8 10 1 10 21 26 27 27 21 11 20 24 22 23 15 8 17 16 15 14 14 14 13 11 11 11 10 10 11 11 12 12 14 14 14 14 14 14 13 13 13 13 14 12 12
2 5 2 5 10 9 8 24 31 21 23 28 31 14 18 22 28 19 8 7 16 15 14 13 13 13 12 12 11 10 10 10 10 11 12 13 13 13 13 13 13 12 12 12 12 12 12 12 11
4 4 2 5 11 7 6 29 30 26 29 29 32 27 23 24 19 15 19 11 10 7 13 13 14 13 11 11 10 10 9 9 10 11 11 12 13 13 13 14 13 12 11 11 12 13 11 9 8
7 0 6 11 7 11 9 30 18 21 29 18 28 13 21 23 19 21 23 18 9 8 12 14 13 13 11 10 10 9 9 9 10 10 11 13 13 15 18 16 14 12 11 10 11 12 11 8 7
11 1 6 13 6 7 15 24 28 21 15 32 30 8 18 24 22 25 26 16 7 6 9 12 12 12 11 10 9 8 8 8 9 9 8 8 10 13 16 20 16 14 13 10 9 12 14 15 15
18 1 10 9 10 7 28 19 23 25 26 15 10 28 27 26 24 32 28 18 11 7 6 7 8 10 10 10 9 8 8 7 8 8 9 7 8 11 14 14 14 15 15 11 10 11 10 9 11
9 3 6 6 6 6 22 31 28 26 26 27 25 23 25 26 24 29 27 22 16 14 11 8 6 9 12 5 7 7 6 6 6 8 7 5 6 9 9 10 11 12 13 9 8 7 7 11 3
11 10 14 21 17 26 26 24 18 23 13 27 27 26 25 21 26 24 24 21 18 14 18 12 7 7 5 4 2 4 4 3 4 4 3 4 5 5 6 8 8 9 7 6 8 7 5 7 11
6 18 19 7 8 8 15 27 16 24 19 28 27 26 22 20 23 22 22 23 21 19 23 16 10 13 7 5 3 2 4 4 7 6 4 6 2 2 4 5 5 5 2 7 9 9 4 10 14
6 9 6 13 4 17 23 21 15 22 30 27 26 24 22 20 19 19 19 23 22 21 21 22 19 16 8 7 2 1 4 1 3 7 5 3 4 2 8 6 5 5 6 3 7 7 12 7 6
13 16 7 9 2 7 4 19 26 29 33 31 28 26 23 23 22 22 21 20 20 22 22 17 17 26 14 11 11 10 9 5 6 6 4 7 8 7 6 3 1 4 3 3 7 1 5 3 3
18 9 4 6 7 5 5 8 15 37 37 34 27 25 22 21 25 25 23 23 25 22 24 23 18 20 29 20 18 17 14 8 5 12 7 11 9 9 5 3 4 5 6 8 9 7 7 2 7
10 5 2 4 4 7 6 6 10 36 37 32 32 29 27 22 27 23 25 26 25 26 22 20 16 15 24 24 21 14 14 10 8 8 10 11 10 11 5 5 6 8 7 8 8 5 9 7 6
4 0 5 6 10 5 5 5 17 33 34 30 31 28 28 25 25 20 28 27 24 26 23 21 18 16 15 20 16 16 12 14 12 9 10 11 9 8 8 8 8 9 10 8 8 5 5 11 9
4 5 7 5 9 8 6 15 18 31 32 25 22 23 29 24 25 21 26 27 25 26 22 23 19 19 17 15 16 18 13 10 12 15 11 8 10 8 10 9 9 7 7 8 7 6 6 10 8
7 9 9 8 9 7 8 12 13 25 24 30 34 32 31 29 24 28 23 19 24 24 22 22 20 19 20 20 16 17 11 7 4 4 9 9 9 9 11 11 11 5 3 6 5 9 9 12 9
11 9 11 8 9 6 8 6 10 12 30 38 35 31 33 32 29 26 25 22 19 21 24 22 21 20 22 21 15 14 9 8 5 9 9 10 11 10 11 12 10 10 8 9 11 12 15 13 14
7 9 8 5 4 4 3 3 8 7 19 29 41 38 37 38 36 31 28 28 28 22 21 24 22 23 20 21 16 16 12 13 13 11 10 8 8 7 7 8 9 13 12 13 14 16 14 15 17
7 8 7 5 0 5 6 5 5 8 10 8 27 31 32 37 36 35 32 31 27 23 22 23 24 23 23 20 18 23 18 12 13 10 9 10 9 4 4 6 7 10 12 14 14 15 15 13 17
9 8 8 10 5 6 5 4 8 16 10 8 18 23 27 41 39 39 38 31 27 21 21 21 25 25 24 22 21 22 17 17 11 14 13 11 9 5 4 6 7 7 7 8 12 17 16 16 16
7 6 8 8 2 2 8 7 6 7 10 8 15 25 24 37 38 34 34 29 27 22 21 20 24 26 25 24 26 21 17 14 18 16 14 13 9 9 9 9 9 7 10 9 10 13 20 21 22
7 2 3 3 3 6 9 4 8 7 15 14 13 26 31 28 32 27 34 29 27 23 21 17 18 21 23 24 28 23 17 16 16 18 13 12 12 10 9 11 12 10 9 10 12 14 15 20 25
9 8 5 6 3 6 5 5 6 6 11 12 26 25 29 28 28 24 24 26 21 24 21 12 1 15 17 18 23 25 23 18 17 16 16 15 12 12 15 15 13 15 15 16 17 18 18 19 22
13 7 13 2 4 3 1 8 7 7 7 5 7 24 28 23 20 22 26 24 27 23 17 17 9 10 15 19 21 21 17 15 14 13 13 11 14 12 16 16 18 17 19 21 20 22 22 23 24
8 6 2 2 4 5 3 2 7 7 7 4 13 25 30 26 19 14 14 19 26 23 11 14 4 24 14 18 22 19 15 13 15 15 15 13 13 17 15 19 20 19 18 20 23 22 23 26 27
4 5 1 5 5 4 2 4 9 3 4 8 10 30 29 24 17 11 14 21 21 16 14 7 10 20 18 17 21 22 18 16 18 18 14 14 15 11 11 13 14 13 14 16 19 21 23 23 26
8 7 5 4 8 2 4 5 3 12 9 15 17 22 20 17 15 12 7 8 10 6 6 14 23 24 9 8 21 23 18 15 13 13 13 8 7 8 7 10 14 18 16 16 16 17 19 21 22
Wind_Direction
283 106 18 65 58 74 227 116 84 98 73 76 75 74 69 67 91 130 141 152 134 141 143 140 135 123 117 113 111 106 100 89 75 65 61 58 58 56 55 53 55 59 66 69 69 81 99 110 109
252 166 308 158 85 73 287 98 87 83 86 88 88 84 65 82 101 124 125 134 134 140 142 141 133 122 116 118 115 108 97 81 70 65 63 63 63 60 55 50 47 51 64 70 70 73 79 94 108
173 157 241 128 154 233 223 110 108 110 92 85 77 63 75 107 106 128 132 135 141 142 141 137 130 127 125 122 118 109 94 80 69 66 68 70 67 63 59 55 54 58 63 71 71 73 77 86 101
107 211 256 153 212 231 24 123 97 104 101 104 105 68 88 120 113 126 127 131 144 136 139 137 135 133 127 122 117 112 99 83 73 75 76 73 66 62 61 57 56 59 66 73 75 81 83 88 100
328 269 277 272 212 241 195 116 105 102 99 100 99 108 106 115 124 123 132 135 131 140 143 137 136 133 132 131 129 114 96 86 82 82 80 73 67 62 62 58 58 61 66 73 77 80 84 95 96
259 236 329 259 230 153 111 120 116 114 111 108 105 114 120 132 142 144 149 155 129 124 146 142 141 140 134 132 126 117 108 94 88 88 82 76 68 61 57 52 50 58 64 73 77 75 75 81 95
219 236 255 276 239 93 105 99 101 125 131 122 126 120 143 154 160 151 163 153 148 133 149 148 147 145 137 138 134 124 111 104 101 98 86 76 61 55 44 39 36 46 53 66 68 68 70 71 65
234 188 278 302 126 117 111 100 98 93 125 136 129 144 168 162 159 153 160 158 129 87 143 151 152 149 146 147 141 137 122 116 109 99 101 77 59 56 45 36 37 42 49 60 67 87 75 82 83
255 296 276 262 126 168 114 96 104 101 78 114 120 145 155 159 157 150 156 150 145 143 100 119 144 155 152 152 153 151 139 128 117 105 95 82 44 44 30 28 37 47 39 62 79 78 75 80 74
205 207 256 278 107 137 120 115 110 106 102 98 109 137 153 162 159 154 156 161 161 165 180 163 111 146 133 133 164 161 152 139 132 110 88 83 28 14 17 4 26 33 24 61 72 43 53 37 46
247 234 259 272 111 132 121 122 120 119 122 134 139 148 157 164 163 161 161 166 173 177 184 174 129 200 160 121 34 164 105 150 106 90 93 58 17 359 340 350 5 23 8 13 9 26 355 44 19
239 252 267 95 80 122 139 138 139 136 149 150 150 160 164 169 158 163 168 169 163 164 184 153 145 198 208 190 295 96 36 3 12 11 36 81 10 305 314 339 354 344 34 359 357 5 79 68 54
259 261 304 105 65 80 137 143 145 130 140 142 154 162 163 163 164 165 168 165 167 170 168 168 171 169 167 190 179 217 171 255 18 256 311 209 264 270 299 321 329 357 330 355 354 350 126 89 74
279 300 273 98 161 79 83 126 123 142 144 146 162 167 169 168 172 164 167 164 175 179 187 196 202 192 171 164 170 176 183 210 211 243 273 269 274 252 294 292 319 314 313 303 306 34 158 68 188
295 304 213 152 216 159 142 107 128 150 147 151 166 168 172 175 175 177 181 183 190 197 203 209 213 204 199 187 193 201 199 215 230 229 249 275 291 302 279 241 279 276 260 280 300 264 205 83 170
301 256 105 252 224 143 134 206 154 147 148 158 171 174 175 190 183 184 188 184 195 199 203 206 208 191 201 208 208 207 197 206 233 241 238 257 291 304 288 210 268 264 260 287 292 264 226 193 168
291 268 264 284 206 161 138 145 153 154 156 167 175 178 180 194 189 198 196 190 199 205 204 208 211 206 199 205 201 183 189 214 221 233 253 271 272 292 312 256 256 270 247 260 285 266 269 219 208
200 264 269 240 207 190 190 157 169 165 168 163 148 186 185 192 197 214 198 203 199 206 213 213 214 220 215 215 205 190 210 215 234 244 247 266 280 264 274 275 287 276 260 238 269 279 256 225 221
211 223 242 250 210 173 224 162 182 173 142 142 172 196 190 194 190 190 182 196 198 213 214 222 214 221 218 219 215 203 208 202 258 252 245 263 269 268 268 269 276 252 338 259 258 267 252 237 231
253 255 259 279 194 145 211 210 177 174 160 168 183 190 194 191 193 194 196 196 196 207 215 221 221 229 220 226 225 214 209 231 249 247 248 257 251 267 268 267 261 234 207 233 246 251 252 256 229
253 241 250 248 199 177 174 318 183 196 167 175 181 191 195 190 192 196 202 203 208 208 212 219 213 239 237 226 221 199 212 212 209 228 213 246 248 254 275 266 241 235 235 237 247 243 249 253 232
264 268 281 287 219 178 155 242 214 188 191 177 180 185 189 190 194 199 203 206 210 216 220 224 224 228 234 230 225 210 213 228 230 243 229 225 264 281 15 10 290 244 247 244 259 249 255 260 249
244 271 281 277 224 156 228 123 258 177 195 181 171 174 184 198 199 204 209 207 204 209 217 223 228 231 229 225 220 212 214 203 212 205 223 246 267 250 311 324 334 342 300 277 257 255 250 258 264
237 270 284 270 147 209 223 162 246 206 185 179 186 190 189 192 198 203 208 199 200 206 217 225 226 229 232 226 216 204 204 201 213 209 230 245 244 266 271 291 295 311 321 304 291 270 255 252 255
235 192 287 349 346 220 234 191 220 196 180 178 181 191 193 182 182 171 189 190 190 202 213 227 233 235 234 229 213 206 206 215 222 232 240 230 236 248 250 265 277 287 287 306 310 293 275 254 255
234 189 180 198 200 259 280 240 271 169 133 178 195 198 185 171 171 174 178 177 183 183 186 165 264 279 255 248 224 214 211 219 234 254 254 247 242 258 264 268 277 288 285 296 299 297 292 282 271
249 219 222 202 336 352 245 329 43 131 138 121 106 155 151 151 140 144 160 170 171 159 134 136 204 259 280 256 246 232 229 229 235 243 243 255 256 277 285 279 281 285 290 292 290 288 287 287 282
173 226 225 352 200 229 157 77 300 303 177 174 112 113 111 121 116 120 129 159 176 182 195 224 257 212 227 239 255 258 228 231 250 252 256 257 270 298 284 280 282 280 289 294 291 290 288 286 287
285 260 193 156 154 200 103 235 220 10 45 27 90 125 126 124 124 132 134 150 163 192 196 206 203 195 220 262 247 237 231 228 247 253 248 277 304 320 306 305 311 308 316 311 300 299 297 297 298
240 225 184 141 286 145 117 256 216 131 103 87 120 123 118 105 75 79 84 111 105 75 186 202 182 200 225 22 243 232 226 234 246 243 293 317 326 313 335 337 333 329 327 322 326 325 317 309 302
Height
1517 1519 1518 1517 1529 1540 1542 1515 1500 1503 1506 1506 1507 1511 1518 1515 1519 1544 1540 1540 1541 1543 1546 1547 1549 1550 1551 1553 1554 1555 1556 1557 1558 1559 1559 1558 1558 1557 1557 1556 1555 1554 1553 1553 1552 1551 1551 1551 1553
1516 1518 1516 1518 1533 1551 1529 1500 1503 1503 1508 1509 1514 1518 1518 1523 1523 1533 1536 1541 1542 1544 1546 1548 1550 1551 1552 1553 1555 1556 1557 1558 1559 1559 1559 1559 1559 1559 1558 1557 1556 1555 1555 1554 1553 1553 1553 1553 1553
1515 1516 1517 1519 1535 1542 1527 1499 1499 1504 1506 1508 1515 1519 1524 1529 1532 1535 1538 1542 1544 1545 1548 1549 1551 1552 1553 1555 1556 1557 1559 1559 1560 1560 1561 1561 1561 1561 1560 1559 1559 1557 1556 1556 1555 1555 1555 1554 1555
1515 1516 1515 1519 1530 1517 1502 1496 1498 1506 1510 1511 1512 1525 1530 1531 1533 1536 1540 1542 1545 1547 1549 1550 1552 1553 1555 1556 1558 1559 1560 1561 1561 1562 1562 1563 1563 1562 1562 1561 1560 1559 1558 1557 1557 1557 1557 1557 1557
1514 1514 1522 1521 1518 1505 1497 1494 1498 1505 1513 1517 1514 1530 1532 1535 1536 1538 1540 1543 1545 1547 1549 1551 1552 1554 1556 1557 1558 1560 1562 1562 1563 1564 1564 1564 1564 1564 1563 1563 1562 1560 1560 1559 1559 1559 1559 1559 1560
1514 1510 1524 1525 1504 1490 1490 1495 1498 1504 1513 1520 1522 1528 1535 1538 1539 1540 1540 1542 1546 1549 1550 1552 1554 1555 1557 1558 1560 1561 1562 1564 1565 1566 1566 1566 1566 1566 1565 1564 1563 1563 1562 1562 1561 1561 1562 1562 1562
1512 1516 1521 1512 1502 1498 1495 1494 1497 1504 1512 1518 1523 1529 1536 1538 1539 1541 1540 1544 1548 1550 1551 1553 1554 1556 1558 1559 1561 1562 1564 1565 1566 1567 1567 1568 1568 1568 1567 1566 1565 1564 1564 1564 1564 1563 1563 1562 1562
1507 1510 1514 1496 1500 1505 1493 1496 1500 1504 1511 1519 1517 1528 1533 1535 1538 1542 1543 1544 1547 1550 1552 1553 1554 1556 1558 1560 1561 1563 1564 1566 1566 1567 1568 1568 1568 1569 1569 1568 1567 1566 1565 1566 1565 1565 1565 1564 1564
1505 1516 1517 1502 1494 1494 1493 1497 1503 1507 1513 1517 1518 1522 1530 1534 1538 1542 1543 1545 1547 1549 1551 1554 1555 1556 1558 1560 1561 1563 1564 1566 1567 1568 1568 1568 1568 1569 1569 1570 1570 1569 1568 1567 1567 1567 1568 1567 1567
1502 1513 1503 1484 1481 1488 1490 1495 1502 1507 1514 1519 1525 1529 1531 1534 1538 1541 1542 1545 1546 1547 1549 1552 1555 1556 1558 1560 1562 1563 1565 1566 1567 1568 1569 1569 1569 1569 1570 1571 1571 1570 1569 1568 1569 1569 1568 1567 1566
1494 1501 1488 1488 1481 1483 1491 1497 1501 1507 1516 1518 1524 1529 1531 1534 1538 1540 1542 1544 1545 1547 1548 1552 1553 1555 1557 1560 1562 1564 1565 1566 1567 1568 1569 1569 1569 1570 1571 1571 1571 1571 1570 1570 1569 1569 1568 1568 1566
1496 1488 1488 1481 1480 1484 1490 1495 1501 1504 1512 1517 1524 1529 1530 1533 1536 1539 1541 1544 1547 1549 1549 1553 1554 1555 1558 1560 1562 1563 1563 1565 1565 1567 1569 1569 1570 1570 1570 1570 1570 1570 1570 1569 1568 1568 1567 1569 1567
1491 1485 1485 1483 1483 1488 1492 1494 1499 1506 1513 1519 1527 1530 1531 1534 1536 1539 1541 1544 1546 1549 1551 1554 1555 1557 1559 1561 1561 1562 1562 1564 1564 1566 1568 1569 1569 1570 1570 1569 1569 1568 1568 1568 1569 1568 1568 1568 1569
1486 1484 1483 1483 1485 1487 1491 1495 1496 1509 1511 1518 1526 1529 1531 1533 1535 1538 1540 1544 1546 1548 1550 1552 1554 1557 1558 1560 1561 1561 1563 1565 1565 1566 1567 1568 1568 1569 1569 1569 1569 1569 1567 1568 1569 1570 1569 1569 1570
1486 1493 1481 1483 1485 1487 1490 1501 1500 1505 1511 1518 1525 1528 1530 1533 1534 1535 1538 1540 1543 1546 1547 1549 1552 1554 1556 1557 1559 1561 1562 1563 1565 1565 1566 1566 1567 1568 1568 1568 1568 1568 1567 1567 1568 1569 1569 1569 1569
1491 1485 1499 1485 1484 1486 1490 1515 1501 1504 1508 1515 1521 1524 1527 1531 1533 1535 1537 1538 1540 1542 1545 1547 1549 1551 1554 1556 1556 1558 1560 1561 1562 1563 1564 1565 1566 1566 1566 1567 1566 1566 1567 1567 1567 1567 1568 1568 1569
1491 1509 1501 1495 1483 1485 1489 1503 1500 1502 1505 1511 1517 1522 1525 1528 1532 1533 1535 1536 1537 1539 1542 1543 1545 1548 1551 1553 1554 1556 1557 1559 1560 1561 1562 1563 1564 1564 1564 1565 1565 1565 1564 1565 1565 1566 1567 1567 1567
1508 1507 1503 1499 1486 1484 1490 1496 1493 1495 1500 1507 1515 1522 1524 1525 1527 1531 1532 1533 1534 1536 1540 1542 1542 1544 1549 1552 1555 1556 1557 1560 1560 1559 1559 1560 1561 1561 1561 1562 1563 1562 1562 1562 1563 1563 1564 1565 1566
1492 1499 1500 1487 1481 1485 1490 1494 1492 1491 1499 1503 1508 1508 1516 1521 1524 1526 1528 1530 1532 1533 1537 1539 1540 1543 1546 1549 1552 1554 1555 1557 1558 1559 1557 1557 1558 1559 1558 1558 1559 1559 1559 1559 1560 1561 1561 1561 1564
1490 1497 1497 1483 1476 1484 1485 1489 1486 1486 1492 1495 1502 1507 1511 1516 1520 1521 1524 1527 1531 1532 1534 1535 1539 1541 1543 1547 1551 1553 1554 1554 1555 1555 1556 1557 1555 1555 1555 1555 1555 1554 1555 1555 1555 1555 1557 1558 1560
1490 1497 1494 1490 1474 1475 1480 1493 1491 1484 1486 1492 1494 1498 1504 1507 1511 1515 1520 1523 1526 1529 1531 1534 1538 1539 1542 1544 1548 1551 1552 1555 1556 1554 1552 1552 1553 1553 1553 1551 1551 1550 1550 1551 1552 1552 1552 1552 1554
1498 1477 1475 1479 1489 1511 1482 1526 1494 1487 1486 1484 1488 1494 1499 1504 1507 1509 1513 1518 1523 1527 1531 1535 1537 1539 1541 1543 1545 1547 1549 1551 1550 1552 1553 1552 1551 1551 1549 1548 1549 1549 1549 1549 1549 1550 1550 1551 1550
1484 1472 1476 1479 1489 1489 1486 1510 1494 1480 1487 1484 1483 1487 1490 1495 1500 1504 1508 1515 1521 1526 1529 1532 1535 1538 1539 1540 1542 1543 1543 1545 1548 1548 1551 1551 1550 1550 1548 1546 1546 1546 1547 1546 1547 1548 1547 1548 1548
1468 1475 1480 1480 1490 1517 1491 1501 1501 1489 1480 1478 1477 1480 1483 1489 1494 1499 1505 1513 1519 1523 1526 1528 1530 1533 1537 1537 1537 1539 1543 1546 1546 1547 1548 1549 1549 1549 1547 1545 1544 1543 1544 1543 1542 1543 1543 1543 1543
1470 1486 1517 1518 1521 1524 1483 1494 1488 1466 1464 1465 1472 1476 1480 1485 1490 1494 1502 1511 1516 1518 1522 1528 1533 1535 1535 1537 1536 1538 1542 1546 1546 1546 1547 1548 1544 1543 1543 1540 1539 1539 1539 1539 1538 1538 1537 1537 1537
1475 1483 1513 1526 1527 1515 1477 1491 1479 1457 1461 1467 1468 1472 1479 1485 1489 1494 1499 1507 1515 1518 1521 1528 1535 1541 1542 1546 1543 1537 1536 1539 1544 1546 1545 1547 1546 1544 1542 1538 1535 1534 1535 1535 1535 1533 1533 1532 1531
1470 1484 1467 1490 1483 1504 1491 1483 1460 1459 1462 1464 1468 1474 1480 1486 1491 1495 1502 1507 1509 1516 1523 1523 1532 1535 1540 1543 1543 1538 1538 1539 1540 1544 1544 1544 1543 1542 1543 1537 1534 1531 1530 1530 1529 1528 1527 1527 1526
1460 1459 1483 1491 1514 1518 1492 1506 1507 1481 1471 1468 1470 1476 1482 1487 1492 1498 1501 1505 1506 1509 1515 1523 1523 1527 1531 1535 1538 1537 1535 1538 1540 1541 1542 1541 1541 1540 1541 1537 1533 1529 1527 1526 1524 1523 1521 1520 1519
1463 1470 1466 1478 1490 1508 1519 1522 1481 1481 1471 1472 1478 1479 1482 1487 1492 1496 1500 1503 1505 1504 1511 1519 1518 1525 1527 1527 1528 1530 1532 1531 1537 1540 1539 1538 1536 1536 1536 1531 1527 1525 1523 1522 1521 1518 1516 1514 1512
1452 1458 1462 1492 1495 1486 1502 1512 1472 1471 1473 1478 1483 1482 1486 1490 1494 1497 1498 1501 1504 1506 1508 1516 1520 1523 1520 1517 1525 1527 1530 1529 1532 1536 1535 1534 1532 1532 1532 1527 1523 1520 1517 1516 1514 1513 1511 1510 1507